Location: Helsinki
(60.1699°N, 24.9384°E)
Time: 22:58:13
(UTC+02:00)

Transit 4A - Pass Details

Date: 28 October 2020
Orbit: 862 x 982 km, 66.8° (Epoch: 30 November)

Event Time Altitude Azimuth Distance (km) Brightness Sun altitude
Rises 20:54:58 0° 293° (WNW) 3,680 12.1 -32.0°
Reaches altitude 10° 20:57:37 10° 299° (WNW) 2,740 11.2 -32.3°
Enters shadow 21:03:32 52° 4° (N) 1,213 8.5 -32.9°
